TimeMST,TemperatureF,Dew PointF,Humidity,Sea Level PressureIn,VisibilityMPH,Wind Direction,Wind SpeedMPH,Gust SpeedMPH,PrecipitationIn,Events,Conditions,WindDirDegrees,DateUTC
12:15 AM,10.4,3.2,73,29.98,10.0,South,9.2,-,N/A,,Clear,190,2013-02-01 07:15:00
12:55 AM,12.2,6.8,79,29.97,10.0,SSW,8.1,-,N/A,,Scattered Clouds,200,2013-02-01 07:55:00
1:15 AM,12.2,6.8,79,29.95,10.0,South,9.2,-,N/A,,Scattered Clouds,190,2013-02-01 08:15:00
1:35 AM,12.2,6.8,79,29.94,10.0,South,11.5,-,N/A,,Clear,190,2013-02-01 08:35:00
1:55 AM,12.2,6.8,79,29.92,10.0,South,12.7,-,N/A,,Partly Cloudy,190,2013-02-01 08:55:00
2:15 AM,12.2,6.8,79,29.92,10.0,South,11.5,-,N/A,,Scattered Clouds,180,2013-02-01 09:15:00
2:35 AM,10.4,6.8,85,29.91,10.0,South,9.2,-,N/A,,Clear,170,2013-02-01 09:35:00
2:55 AM,12.2,8.6,85,29.91,10.0,SSW,11.5,-,N/A,,Mostly Cloudy,200,2013-02-01 09:55:00
3:35 AM,12.2,8.6,85,29.88,10.0,South,6.9,-,N/A,,Scattered Clouds,190,2013-02-01 10:35:00
3:55 AM,12.2,8.6,85,29.89,10.0,ENE,3.5,-,N/A,,Partly Cloudy,70,2013-02-01 10:55:00
4:15 AM,10.4,5.0,79,29.88,10.0,ESE,4.6,-,N/A,,Clear,120,2013-02-01 11:15:00
4:35 AM,8.6,5.0,85,29.88,10.0,South,8.1,-,N/A,,Scattered Clouds,190,2013-02-01 11:35:00
5:15 AM,10.4,5.0,79,29.87,10.0,SSW,10.4,-,N/A,,Clear,200,2013-02-01 12:15:00
5:35 AM,10.4,8.6,92,29.86,10.0,SSW,10.4,-,N/A,,Clear,210,2013-02-01 12:35:00
5:55 AM,10.4,6.8,85,29.87,10.0,WSW,6.9,-,N/A,,Clear,240,2013-02-01 12:55:00
6:15 AM,12.2,8.6,85,29.87,10.0,WSW,6.9,-,N/A,,Clear,240,2013-02-01 13:15:00
6:35 AM,14.0,8.6,79,29.87,10.0,West,8.1,-,N/A,,Clear,260,2013-02-01 13:35:00
6:55 AM,12.2,3.2,67,29.88,10.0,WNW,3.5,-,N/A,,Clear,290,2013-02-01 13:55:00
7:15 AM,19.4,12.2,74,29.88,10.0,West,8.1,-,N/A,,Clear,280,2013-02-01 14:15:00
7:35 AM,24.8,15.8,69,29.88,10.0,WNW,17.3,-,N/A,,Clear,300,2013-02-01 14:35:00
7:55 AM,23.0,15.8,74,29.88,10.0,WNW,23.0,27.6,N/A,,Scattered Clouds,300,2013-02-01 14:55:00
8:35 AM,24.8,21.2,86,29.89,10.0,NW,23.0,29.9,N/A,,Overcast,310,2013-02-01 15:35:00
8:55 AM,26.6,24.8,93,29.91,10.0,NW,20.7,28.8,N/A,,Overcast,310,2013-02-01 15:55:00
9:15 AM,26.6,21.2,80,29.92,10.0,NW,16.1,26.5,N/A,,Mostly Cloudy,310,2013-02-01 16:15:00
9:35 AM,24.8,17.6,74,29.91,10.0,NW,18.4,24.2,N/A,,Clear,310,2013-02-01 16:35:00
9:55 AM,24.8,19.4,80,29.92,10.0,NW,16.1,-,N/A,,Scattered Clouds,320,2013-02-01 16:55:00
10:15 AM,26.6,21.2,80,29.94,10.0,NNW,9.2,-,N/A,,Overcast,330,2013-02-01 17:15:00
10:35 AM,26.6,23.0,86,29.95,10.0,NW,6.9,-,N/A,,Overcast,320,2013-02-01 17:35:00
10:55 AM,28.4,23.0,80,29.95,10.0,West,10.4,-,N/A,,Overcast,280,2013-02-01 17:55:00
11:35 AM,30.2,26.6,86,29.95,10.0,NW,12.7,16.1,N/A,,Overcast,310,2013-02-01 18:35:00
11:55 AM,30.2,28.4,93,29.95,10.0,NW,12.7,-,N/A,,Overcast,310,2013-02-01 18:55:00
12:15 PM,30.2,28.4,93,29.95,10.0,WNW,15.0,-,N/A,,Overcast,290,2013-02-01 19:15:00
12:35 PM,32.0,28.4,87,29.95,10.0,WNW,15.0,-,N/A,,Overcast,290,2013-02-01 19:35:00
12:55 PM,33.8,28.4,81,29.96,10.0,WNW,10.4,17.3,N/A,,Overcast,290,2013-02-01 19:55:00
1:15 PM,33.8,30.2,87,29.96,10.0,WNW,16.1,20.7,N/A,,Overcast,300,2013-02-01 20:15:00
1:35 PM,33.8,30.2,87,29.96,10.0,WNW,16.1,20.7,N/A,,Overcast,300,2013-02-01 20:35:00
1:55 PM,33.8,28.4,81,29.96,10.0,WNW,15.0,20.7,N/A,,Overcast,300,2013-02-01 20:55:00
2:15 PM,33.8,28.4,81,29.96,10.0,NW,13.8,24.2,N/A,,Mostly Cloudy,310,2013-02-01 21:15:00
2:35 PM,33.8,28.4,81,29.96,10.0,NW,16.1,20.7,N/A,,Overcast,310,2013-02-01 21:35:00
2:55 PM,33.8,28.4,81,29.97,7.0,NW,17.3,-,N/A,,Overcast,310,2013-02-01 21:55:00
3:35 PM,33.8,30.2,87,29.98,4.0,NW,11.5,-,N/A,,Mostly Cloudy,310,2013-02-01 22:35:00
3:55 PM,32.0,30.2,93,29.99,2.5,WNW,11.5,-,N/A,,Overcast,300,2013-02-01 22:55:00
4:15 PM,32.0,30.2,93,29.99,1.8,WNW,8.1,-,N/A,,Overcast,290,2013-02-01 23:15:00
4:35 PM,32.0,30.2,93,29.98,5.0,WNW,6.9,-,N/A,,Overcast,290,2013-02-01 23:35:00
4:55 PM,32.0,30.2,93,29.98,2.0,West,9.2,-,N/A,,Overcast,280,2013-02-01 23:55:00
5:15 PM,32.0,30.2,93,29.99,2.0,WNW,8.1,-,N/A,,Overcast,290,2013-02-02 00:15:00
5:35 PM,32.0,30.2,93,29.99,3.0,NW,8.1,-,N/A,,Overcast,310,2013-02-02 00:35:00
5:55 PM,32.0,30.2,93,29.99,2.0,NNW,6.9,-,N/A,,Overcast,330,2013-02-02 00:55:00
6:15 PM,32.0,30.2,93,30.00,4.0,NNW,4.6,-,N/A,,Overcast,340,2013-02-02 01:15:00
6:35 PM,30.2,30.2,100,30.01,3.0,Calm,Calm,-,N/A,,Overcast,0,2013-02-02 01:35:00
6:55 PM,30.2,28.4,93,30.01,5.0,Calm,Calm,-,N/A,,Overcast,0,2013-02-02 01:55:00
7:15 PM,32.0,30.2,93,30.02,2.5,North,5.8,-,N/A,,Overcast,350,2013-02-02 02:15:00
7:35 PM,32.0,30.2,93,30.02,3.0,NW,6.9,-,N/A,,Overcast,320,2013-02-02 02:35:00
7:55 PM,32.0,30.2,93,30.02,7.0,NW,10.4,-,0.01,,Overcast,320,2013-02-02 02:55:00
8:15 PM,32.0,30.2,93,30.03,7.0,NNW,10.4,-,N/A,,Mostly Cloudy,330,2013-02-02 03:15:00
8:35 PM,30.2,28.4,93,30.03,10.0,NNW,4.6,-,N/A,,Overcast,330,2013-02-02 03:35:00
8:55 PM,32.0,30.2,93,30.03,3.0,NW,3.5,-,N/A,,Overcast,320,2013-02-02 03:55:00
9:15 PM,32.0,30.2,93,30.04,3.0,NW,8.1,-,N/A,,Overcast,320,2013-02-02 04:15:00
9:35 PM,32.0,30.2,93,30.04,2.0,NW,4.6,-,N/A,,Overcast,310,2013-02-02 04:35:00
9:55 PM,32.0,30.2,93,30.04,2.0,Calm,Calm,-,N/A,,Overcast,0,2013-02-02 04:55:00
10:15 PM,30.2,30.2,100,30.04,2.5,SSW,5.8,-,N/A,,Overcast,210,2013-02-02 05:15:00
10:55 PM,33.8,30.2,87,30.03,10.0,West,12.7,-,0.01,,Mostly Cloudy,280,2013-02-02 05:55:00
11:15 PM,33.8,32.0,93,30.03,10.0,West,12.7,-,0.01,,Mostly Cloudy,280,2013-02-02 06:15:00
11:35 PM,33.8,30.2,87,30.03,10.0,West,12.7,-,0.03,,Overcast,270,2013-02-02 06:35:00
11:55 PM,33.8,30.2,87,30.04,10.0,West,12.7,-,0.03,,Overcast,270,2013-02-02 06:55:00